Weather History for Anchialos, Greece

Change the Weather History Date:

Monday, January 7, 2013

  Actual Average Record
Temperature  
Mean Temperature 40 °F -  
Max Temperature 50 °F - - ()
Min Temperature 30 °F - - ()
Degree Days  
Heating Degree Days 25    
Moisture  
Dew Point 24 °F    
Average Humidity 55    
Maximum Humidity 80    
Minimum Humidity 29    
Precipitation  
Precipitation 0.00 in - - ()
Sea Level Pressure  
Sea Level Pressure 29.96 in    
Wind  
Wind Speed 5 mph ()    
Max Wind Speed 22 mph    
Max Gust Speed 33 mph    
Visibility 6.2 miles    
Events      
T = Trace of Precipitation, MM = Missing Value Source: Averaged Metar Reports

Daily Weather History Graph

Daily Weather History Graph

Search for Another Location

Airport:

Trip Planner

Search our weather history database for the weather conditions in past years. The results will help you decide how hot, cold, wet, or windy it might be!

Date:

Astronomy

Jan. 07, 2013 Rise Set
Actual Time 7:48 AM EET 5:21 PM EET
Civil Twilight 7:18 AM EET 5:51 PM EET
Nautical Twilight 6:45 AM EET 6:25 PM EET
Astronomical Twilight 6:13 AM EET 6:57 PM EET
Moon 2:51 AM EET (1/7) 1:18 PM EET (1/7)
Length of Visible Light 10h 32m
Length of Day
9h 33m
Waning Crescent, 26% of the Moon is Illuminated
Jan 7
Waning Crescent
Jan 11
New
Jan 19
First Quarter
Jan 27
Full
Feb 3
Last Quarter

Hourly Weather History & Observations

Time (EET) Temp. Windchill Dew Point Humidity Pressure Visibility Wind Dir Wind Speed Gust Speed Precip Events Conditions
12:50 AM 33.8 °F 29.6 °F 24.8 °F 70% 29.98 in 6.2 mi WNW 4.6 mph - N/A   Partly Cloudy
1:50 AM 33.8 °F - 24.8 °F 70% 29.95 in 6.2 mi Calm Calm - N/A   Partly Cloudy
2:50 AM 32.0 °F - 24.8 °F 75% 29.95 in 6.2 mi Calm Calm - N/A   Partly Cloudy
3:50 AM 30.2 °F - 24.8 °F 80% 29.95 in 6.2 mi Calm Calm - N/A   Partly Cloudy
4:50 AM 30.2 °F 25.4 °F 24.8 °F 80% 29.92 in 6.2 mi WSW 4.6 mph - N/A   Partly Cloudy
5:50 AM 32.0 °F - 24.8 °F 75% 29.92 in 6.2 mi Calm Calm - N/A   Partly Cloudy
6:20 AM 32.0 °F - 24.8 °F 75% 29.92 in 6.2 mi Calm Calm - N/A   Partly Cloudy
6:50 AM 32.0 °F - 24.8 °F 75% 29.95 in 6.2 mi Calm Calm - N/A   Scattered Clouds
7:20 AM 32.0 °F 26.4 °F 24.8 °F 75% 29.95 in 6.2 mi WSW 5.8 mph - N/A   Scattered Clouds
7:50 AM 35.6 °F - 24.8 °F 65% 29.92 in 6.2 mi Calm Calm - N/A   Mostly Cloudy
8:20 AM 35.6 °F 31.7 °F 24.8 °F 65% 29.92 in 6.2 mi West 4.6 mph - N/A   Mostly Cloudy
8:50 AM 37.4 °F 32.1 °F 26.6 °F 65% 29.92 in 6.2 mi WNW 6.9 mph - N/A   Mostly Cloudy
9:20 AM 37.4 °F 32.1 °F 26.6 °F 65% 29.92 in 6.2 mi WNW 6.9 mph - N/A   Mostly Cloudy
9:50 AM 39.2 °F 34.2 °F 26.6 °F 61% 29.92 in 6.2 mi WNW 6.9 mph - N/A   Mostly Cloudy
10:20 AM 41.0 °F 37.1 °F 26.6 °F 57% 29.92 in 6.2 mi West 5.8 mph - N/A   Mostly Cloudy
10:50 AM 41.0 °F - 28.4 °F 61% 29.92 in 6.2 mi Calm Calm - N/A   Scattered Clouds
11:20 AM 42.8 °F - 28.4 °F 57% 29.92 in 6.2 mi Calm Calm - N/A   Scattered Clouds
11:50 AM 44.6 °F - 28.4 °F 53% 29.92 in 6.2 mi Calm Calm - N/A   Scattered Clouds
12:20 PM 44.6 °F 40.7 °F 28.4 °F 53% 29.92 in 6.2 mi NNW 6.9 mph - N/A   Scattered Clouds
12:50 PM 48.2 °F - 28.4 °F 46% 29.92 in 6.2 mi North 8.1 mph - N/A   Scattered Clouds
1:50 PM 48.2 °F - 28.4 °F 46% 29.92 in 6.2 mi North 6.9 mph - N/A   Scattered Clouds
2:20 PM 50.0 °F - 28.4 °F 43% 29.92 in 6.2 mi WNW 5.8 mph - N/A   Scattered Clouds
2:50 PM 50.0 °F - 26.6 °F 40% 29.92 in 6.2 mi North 11.5 mph - N/A   Scattered Clouds
3:20 PM 50.0 °F - 26.6 °F 40% 29.92 in 6.2 mi North 13.8 mph - N/A   Scattered Clouds
4:20 PM 48.2 °F - 26.6 °F 43% 29.92 in 6.2 mi North 10.4 mph - N/A   Scattered Clouds
4:50 PM 44.6 °F 39.7 °F 28.4 °F 53% 29.95 in 6.2 mi North 9.2 mph - N/A   Scattered Clouds
5:20 PM 44.6 °F 40.7 °F 28.4 °F 53% 29.95 in 6.2 mi North 6.9 mph - N/A   Partly Cloudy
6:20 PM 44.6 °F 40.7 °F 24.8 °F 46% 29.98 in 6.2 mi NW 6.9 mph - N/A   Scattered Clouds
6:50 PM 44.6 °F 37.8 °F 17.6 °F 34% 30.01 in 6.2 mi North 15.0 mph - N/A   Scattered Clouds
7:20 PM 44.6 °F 37.2 °F 17.6 °F 34% 30.01 in 6.2 mi North 17.3 mph - N/A   Scattered Clouds
7:50 PM 44.6 °F 37.2 °F 14.0 °F 29% 30.04 in 6.2 mi North 17.3 mph - N/A   Scattered Clouds
8:50 PM 41.0 °F 35.8 °F 15.8 °F 36% 30.06 in 6.2 mi NW 8.1 mph - N/A   Scattered Clouds
9:50 PM 41.0 °F 33.1 °F 14.0 °F 33% 30.09 in 6.2 mi North 15.0 mph - N/A   Scattered Clouds
10:50 PM 39.2 °F 29.0 °F 12.2 °F 33% 30.12 in 6.2 mi North 21.9 mph 33.4 mph N/A   Partly Cloudy
11:50 PM 37.4 °F 28.9 °F 15.8 °F 41% 30.15 in 6.2 mi NNW 13.8 mph - N/A   Partly Cloudy